KM8V-8 Weather Reports


Display with metric or nautical units.
time (UTC)temp
F
wind
direction
speed
MPH
gust
MPH
rain 1hr
in
rain 24hr
in
rain mn
in
humidity
%
barometer
mb
20260506091023 45 263 3.0 4.0 0.01 0.89 0.47 100 1008.9
20260506090523 45 254 1.0 2.0 0.02 0.89 0.47 100 1008.6
20260506090023 45 259 2.0 3.0 0.03 0.89 0.47 100 1008.5
20260506085523 45 265 1.0 4.0 0.04 0.89 0.47 100 1008.5
20260506085019 45 255 1.0 5.0 0.04 0.89 0.47 100 1008.4
20260506084519 45 257 2.0 6.0 0.04 0.89 0.47 99 1008.3
20260506084024 45 345 1.0 2.0 0.04 0.89 0.47 99 1008.3
20260506083524 46 266 1.0 4.0 0.05 0.89 0.47 99 1008.3
20260506083024 46 298 1.0 3.0 0.05 0.89 0.47 100 1008.2
20260506082524 46 277 1.0 4.0 0.05 0.89 0.47 100 1008.2
20260506082024 46 286 1.0 4.0 0.06 0.89 0.47 100 1008.4
20260506081520 46 264 2.0 6.0 0.07 0.89 0.46 100 1008.5
20260506081020 46 256 2.0 7.0 0.07 0.88 0.46 100 1008.4
20260506080520 47 274 2.0 8.0 0.06 0.87 0.45 100 1008.6
20260506073525 46 265 1.0 3.0 0.05 0.84 0.42 100 1008.4
20260506073025 46 293 1.0 2.0 0.05 0.84 0.42 100 1008.3
20260506072525 46 281 0.0 2.0 0.05 0.84 0.42 100 1008.3
20260506072025 46 345 0.0 1.0 0.04 0.83 0.41 100 1008.3
20260506071525 46 299 0.0 2.0 0.02 0.82 0.39 100 1008.3
20260506071025 46 236 0.0 4.0 0.02 0.81 0.39 99 1008.3
20260506070525 46 256 0.0 1.0 0.02 0.81 0.39 99 1008.3
20260506062026 46 274 0.0 2.0 0.01 0.80 0.37 99 1008.5
20260506061526 46 288 1.0 2.0 0.01 0.79 0.37 99 1008.5
20260506061026 46 313 0.0 1.0 0.02 0.79 0.37 99 1008.5
20260506060526 46 280 1.0 3.0 0.02 0.79 0.37 99 1008.5
20260506051028 46 0.0 0.0 0.04 0.78 0.35 99 1008.5
20260506050528 46 0.0 0.0 0.04 0.78 0.35 99 1008.5
20260506045028 46 0.0 0.0 0.03 0.76 0.34 99 1008.9
20260506044528 46 0.0 0.0 0.03 0.76 0.33 99 1008.8
20260506044028 46 68 1.0 2.0 0.02 0.75 0.33 99 1008.9
20260506043528 47 56 0.0 1.0 0.02 0.76 0.32 99 1008.9
20260506043028 47 18 0.0 1.0 0.03 0.76 0.32 99 1009.0
20260506042528 47 0.0 0.0 0.03 0.76 0.32 99 1009.0
20260506042029 47 0.0 0.0 0.03 0.76 0.32 99 1009.0
20260506041528 47 336 0.0 0.0 0.04 0.75 0.32 99 1009.1
20260506041029 47 336 0.0 1.0 0.04 0.75 0.32 99 1009.2
20260506040529 47 345 0.0 1.0 0.05 0.75 0.32 99 1009.2
20260506040029 47 335 0.0 1.0 0.06 0.75 0.31 99 1009.2
20260506035516 48 58 0.0 1.0 0.07 0.75 0.31 99 1009.3
20260506035029 48 0.0 0.0 0.08 0.74 0.31 99 1009.4
20260506034529 48 291 0.0 2.0 0.09 0.74 0.30 99 1009.6
20260506034029 48 272 1.0 2.0 0.10 0.74 0.30 99 1009.5
20260506033529 48 254 1.0 2.0 0.11 0.74 0.30 99 1009.5
20260506033030 48 265 2.0 4.0 0.13 0.73 0.30 99 1009.5
20260506032529 48 287 1.0 2.0 0.14 0.73 0.29 99 1009.4
20260506032030 48 0.0 0.0 0.14 0.73 0.29 99 1009.3
20260506031530 49 1 0.0 2.0 0.15 0.72 0.28 99 1009.4
20260506031016 49 57 0.0 1.0 0.16 0.71 0.27 99 1009.3
20260506030530 49 287 1.0 3.0 0.16 0.70 0.27 99 1009.4
20260506030017 49 252 0.0 3.0 0.16 0.69 0.25 99 1009.4
20260506025517 49 284 1.0 4.0 0.16 0.68 0.24 99 1009.4
20260506025017 49 275 1.0 3.0 0.16 0.66 0.23 99 1009.4
20260506024519 49 0.0 0.0 0.15 0.65 0.22 99 1009.4
20260506024017 49 9 0.0 2.0 0.14 0.64 0.20 99 1009.3
20260506023517 49 14 0.0 2.0 0.14 0.62 0.19 99 1009.1
20260506023017 49 4 0.0 2.0 0.13 0.61 0.17 99 1009.0
20260506022517 49 97 0.0 1.0 0.12 0.59 0.16 99 1009.0
20260506022019 49 81 0.0 2.0 0.12 0.59 0.15 99 1008.9
20260506021518 49 62 1.0 4.0 0.10 0.57 0.13 99 1008.9
20260506021019 49 34 1.0 2.0 0.09 0.56 0.12 99 1008.9
20260506020518 49 9 1.0 3.0 0.08 0.54 0.11 99 1008.9
20260506020021 49 345 1.0 3.0 0.06 0.53 0.09 99 1008.9
20260506015519 49 345 1.0 3.0 0.05 0.52 0.08 99 1008.8
20260506015018 49 19 0.0 1.0 0.04 0.51 0.07 99 1008.7
20260506014518 49 18 0.0 2.0 0.04 0.51 0.07 99 1008.7
20260506014018 49 1 0.0 1.0 0.04 0.50 0.06 99 1008.8
20260506013518 49 0.0 0.0 0.02 0.48 0.05 99 1008.7
20260506013018 49 41 0.0 1.0 0.02 0.48 0.04 99 1008.7
20260506012519 49 11 1.0 3.0 0.01 0.47 0.03 99 1008.7
20260506012019 49 358 1.0 2.0 0.01 0.47 0.03 99 1008.7
20260506011519 49 75 0.0 1.0 0.02 0.47 0.03 99 1008.6
20260506011020 49 0.0 0.0 0.02 0.47 0.03 98 1008.6
20260506010519 49 30 0.0 2.0 0.03 0.47 0.03 98 1008.5
20260506010019 49 358 1.0 3.0 0.03 0.47 0.03 98 1008.5
20260506005519 49 28 0.0 2.0 0.03 0.46 0.03 98 1008.5
20260506005019 49 9 1.0 3.0 0.03 0.46 0.03 98 1008.5
20260506004519 49 56 1.0 2.0 0.03 0.46 0.03 98 1008.7
20260506004019 49 265 1.0 2.0 0.03 0.46 0.02 98 1008.7
20260506003519 49 72 1.0 4.0 0.02 0.46 0.02 98 1008.8
20260506003019 49 44 2.0 4.0 0.02 0.46 0.02 98 1008.5
20260506002520 49 44 1.0 2.0 0.02 0.46 0.02 98 1008.3
20260506002019 49 67 1.0 3.0 0.02 0.46 0.02 98 1008.2
20260506001520 49 57 1.0 2.0 0.02 0.45 0.01 98 1008.1
20260506001020 49 45 1.0 3.0 0.02 0.45 0.01 98 1008.1
20260506000521 49 63 2.0 4.0 0.02 0.44 0.00 98 1008.1
20260506000021 49 79 2.0 4.0 0.02 0.44 0.00 98 1008.1
20260505235520 49 82 1.0 5.0 0.03 0.44 0.44 98 1008.2
20260505235020 49 80 2.0 3.0 0.04 0.44 0.44 98 1008.1
20260505234520 49 72 2.0 3.0 0.06 0.44 0.44 98 1008.0
20260505234021 49 62 1.0 3.0 0.09 0.44 0.44 98 1008.1
20260505233519 49 37 1.0 6.0 0.12 0.44 0.44 98 1008.2
20260505233020 49 57 2.0 4.0 0.12 0.43 0.43 98 1008.2
20260505232522 49 75 2.0 3.0 0.13 0.43 0.43 98 1008.4
20260505232022 49 58 1.0 4.0 0.13 0.43 0.43 98 1008.6
20260505231522 49 60 1.0 3.0 0.14 0.43 0.43 98 1008.5
20260505231018 49 10 1.0 6.0 0.15 0.43 0.43 98 1008.5
20260505230521 49 78 1.0 2.0 0.16 0.42 0.42 98 1008.7
20260505230021 50 11 1.0 3.0 0.16 0.42 0.42 98 1008.6
20260505225521 50 13 2.0 3.0 0.16 0.41 0.41 98 1008.6
20260505225021 50 280 1.0 3.0 0.15 0.40 0.40 97 1008.8
20260505224522 50 245 1.0 3.0 0.16 0.38 0.38 97 1008.6
20260505224022 50 297 1.0 3.0 0.14 0.35 0.35 97 1008.3
20260505223521 50 72 0.0 2.0 0.12 0.32 0.32 97 1008.2
20260505223021 50 327 0.0 2.0 0.12 0.31 0.31 97 1008.4
20260505222522 50 256 1.0 3.0 0.12 0.31 0.31 97 1008.4
20260505222022 50 287 1.0 3.0 0.11 0.30 0.30 97 1008.5
20260505221522 50 279 1.0 4.0 0.10 0.29 0.29 97 1008.3
20260505221022 50 271 1.0 3.0 0.09 0.27 0.27 97 1008.2
20260505220522 50 324 1.0 4.0 0.09 0.26 0.26 97 1008.1
20260505220022 50 326 1.0 2.0 0.09 0.26 0.26 97 1008.1
20260505215522 50 15 0.0 2.0 0.09 0.25 0.25 97 1008.0
20260505215022 50 335 2.0 4.0 0.11 0.25 0.24 97 1008.1
20260505214522 51 354 2.0 4.0 0.09 0.22 0.22 97 1008.0
20260505214023 51 49 1.0 2.0 0.10 0.21 0.21 97 1007.8
20260505213522 51 50 2.0 3.0 0.10 0.20 0.20 97 1008.0
20260505213023 51 292 1.0 3.0 0.10 0.20 0.19 97 1007.9
20260505212522 51 345 1.0 3.0 0.10 0.19 0.19 96 1007.8
20260505212023 51 49 0.0 2.0 0.10 0.19 0.19 96 1007.9
20260505211523 51 263 1.0 3.0 0.10 0.19 0.19 96 1007.9
20260505211023 52 258 1.0 4.0 0.10 0.18 0.18 96 1007.8
20260505210523 52 309 1.0 3.0 0.10 0.18 0.17 96 1007.7
20260505210023 52 15 2.0 5.0 0.10 0.18 0.17 96 1007.7
20260505205521 54 309 3.0 9.0 0.09 0.16 0.16 95 1007.7
20260505205021 55 267 2.0 7.0 0.07 0.14 0.14 95 1007.6
20260505204521 57 335 3.0 8.0 0.06 0.13 0.12 96 1007.5
20260505204024 57 272 2.0 4.0 0.05 0.11 0.11 96 1007.5
20260505203521 57 263 2.0 5.0 0.05 0.10 0.10 96 1007.5
20260505203024 57 262 3.0 5.0 0.05 0.10 0.09 96 1007.5
20260505202524 57 277 2.0 4.0 0.05 0.09 0.09 96 1007.4
20260505202024 57 310 2.0 4.0 0.05 0.09 0.09 96 1007.4
20260505201524 57 258 3.0 5.0 0.05 0.09 0.08 95 1007.5
20260505201024 57 240 2.0 4.0 0.05 0.08 0.08 95 1007.4
20260505200524 57 249 3.0 5.0 0.05 0.08 0.08 95 1007.4
20260505200024 57 232 3.0 5.0 0.05 0.08 0.07 95 1007.4
20260505195525 57 256 3.0 5.0 0.05 0.07 0.07 94 1007.4
20260505195025 57 219 3.0 5.0 0.05 0.07 0.07 94 1007.5
20260505194522 57 248 3.0 5.0 0.05 0.07 0.06 93 1007.5
20260505194025 58 212 3.0 4.0 0.04 0.06 0.06 93 1007.5
20260505193522 58 230 3.0 5.0 0.03 0.05 0.05 92 1007.6
20260505193025 58 227 3.0 4.0 0.03 0.05 0.04 92 1007.5
20260505192516 58 255 3.0 6.0 0.02 0.04 0.04 91 1007.5
20260505192016 58 257 3.0 6.0 0.02 0.04 0.03 90 1007.5
20260505191516 59 240 3.0 7.0 0.02 0.04 0.03 89 1007.4
20260505191016 60 259 3.0 6.0 0.02 0.03 0.03 87 1007.4
20260505190516 61 246 3.0 7.0 0.01 0.03 0.03 84 1007.4
20260505190026 61 291 2.0 5.0 0.01 0.03 0.03 81 1007.3
20260505185516 62 254 3.0 6.0 0.00 0.02 0.02 79 1007.2
20260505185022 63 253 3.0 7.0 0.00 0.02 0.01 77 1007.1
20260505184523 63 230 5.0 8.0 0.00 0.02 0.01 75 1007.1
20260505184023 63 267 4.0 9.0 0.00 0.02 0.01 74 1007.0
20260505183523 63 264 4.0 7.0 0.00 0.02 0.01 73 1007.0
20260505183017 63 226 3.0 7.0 0.00 0.02 0.01 73 1007.0
20260505182517 64 243 5.0 8.0 0.00 0.02 0.01 72 1007.0
20260505182017 64 234 4.0 8.0 0.00 0.02 0.01 72 1007.0
20260505181517 64 263 5.0 9.0 0.00 0.02 0.01 72 1006.9
20260505181017 64 235 6.0 12.0 0.00 0.02 0.01 72 1006.8
20260505180518 64 230 6.0 9.0 0.00 0.02 0.01 71 1006.8
20260505180018 64 246 6.0 11.0 0.00 0.02 0.01 71 1006.8
20260505175517 64 221 6.0 14.0 0.00 0.02 0.01 71 1006.8
20260505175017 64 247 5.0 12.0 0.00 0.02 0.01 71 1006.7
20260505174516 64 233 6.0 10.0 0.00 0.02 0.01 71 1006.7
20260505174018 64 234 7.0 12.0 0.00 0.02 0.01 71 1006.7
20260505173518 64 226 6.0 8.0 0.00 0.02 0.01 70 1006.7
20260505173018 64 228 7.0 10.0 0.00 0.02 0.01 70 1006.7
20260505172518 64 257 5.0 9.0 0.00 0.02 0.01 70 1006.7
20260505172018 64 227 6.0 9.0 0.00 0.02 0.01 70 1006.6
20260505171518 64 243 5.0 9.0 0.00 0.02 0.01 71 1006.6
20260505171018 64 248 3.0 6.0 0.00 0.02 0.01 72 1006.6
20260505170518 64 266 4.0 7.0 0.00 0.02 0.01 72 1006.6
20260505170019 64 263 4.0 7.0 0.00 0.02 0.01 71 1006.6
20260505165518 65 266 3.0 6.0 0.00 0.02 0.01 71 1006.6
20260505165018 65 251 3.0 7.0 0.00 0.02 0.01 70 1006.6
20260505164519 65 254 3.0 8.0 0.00 0.02 0.01 68 1006.5
20260505164016 66 237 7.0 14.0 0.00 0.02 0.01 66 1006.5
20260505163516 66 249 6.0 11.0 0.00 0.02 0.01 66 1006.5
20260505163019 66 244 7.0 14.0 0.00 0.02 0.01 65 1006.4
20260505162519 66 227 7.0 13.0 0.00 0.02 0.01 65 1006.3
20260505162019 66 240 6.0 10.0 0.00 0.02 0.01 65 1006.4
20260505161519 66 215 7.0 13.0 0.00 0.02 0.01 65 1006.3
20260505161019 66 206 7.0 13.0 0.00 0.02 0.01 64 1006.2
20260505160519 67 231 5.0 13.0 0.00 0.02 0.01 64 1006.3
20260505153020 67 247 6.0 13.0 0.00 0.02 0.01 63 1005.5
20260505152520 66 231 6.0 13.0 0.00 0.02 0.01 63 1005.3
20260505152017 66 220 7.0 12.0 0.00 0.02 0.01 63 1005.1
20260505151518 66 238 7.0 13.0 0.00 0.02 0.01 63 1005.0
20260505151017 66 225 6.0 11.0 0.00 0.02 0.01 64 1005.0
20260505150517 66 214 8.0 14.0 0.00 0.02 0.01 63 1005.2
20260505140519 64 223 8.0 19.0 0.00 0.02 0.01 69 1005.0
20260505125016 62 219 4.0 10.0 0.00 0.02 0.01 72 1005.3
20260505124517 62 215 4.0 10.0 0.00 0.02 0.01 72 1005.3
20260505124016 62 212 5.0 12.0 0.00 0.02 0.01 71 1005.1
20260505123517 62 218 5.0 12.0 0.00 0.05 0.01 71 1005.1
20260505123017 62 224 5.0 11.0 0.00 0.05 0.01 71 1005.1
20260505122517 62 230 4.0 9.0 0.00 0.05 0.01 71 1005.0
20260505122020 62 218 5.0 12.0 0.00 0.05 0.01 71 1004.9
20260505121523 62 218 3.0 7.0 0.00 0.05 0.01 71 1004.8
20260505121023 62 221 4.0 9.0 0.00 0.05 0.01 71 1004.6
20260505120517 62 201 5.0 10.0 0.00 0.05 0.01 71 1004.4
20260505120017 62 219 4.0 7.0 0.00 0.05 0.01 71 1004.1
20260505115518 62 204 3.0 6.0 0.00 0.05 0.01 70 1004.0
20260505115017 63 211 3.0 7.0 0.00 0.05 0.01 70 1003.8
20260505114518 63 208 3.0 7.0 0.00 0.05 0.01 69 1003.8
20260505114018 63 208 4.0 9.0 0.00 0.05 0.01 69 1003.8
20260505113518 63 222 3.0 6.0 0.00 0.05 0.01 68 1003.7
20260505113018 63 212 3.0 9.0 0.00 0.05 0.01 67 1003.7
20260505112518 64 212 5.0 9.0 0.00 0.05 0.01 67 1003.6
20260505112016 64 218 3.0 11.0 0.00 0.05 0.01 67 1003.6
20260505111518 64 242 4.0 9.0 0.00 0.05 0.01 66 1003.6
20260505111018 64 223 5.0 12.0 0.00 0.05 0.01 66 1003.6
20260505110518 64 210 5.0 9.0 0.00 0.05 0.01 66 1003.7
20260505102019 65 215 5.0 9.0 0.00 0.05 0.01 65 1003.4
20260505101520 65 209 7.0 17.0 0.00 0.05 0.01 65 1003.2
20260505101016 65 222 6.0 11.0 0.00 0.05 0.01 65 1003.2
20260505100519 65 223 5.0 10.0 0.00 0.05 0.01 65 1003.2
20260505100016 66 216 7.0 16.0 0.00 0.05 0.01 64 1002.9
20260505095516 66 211 7.0 14.0 0.00 0.05 0.01 64 1002.8
20260505095020 66 225 7.0 14.0 0.00 0.05 0.01 64 1002.7
20260505094519 66 216 5.0 15.0 0.00 0.05 0.01 64 1002.6
20260505094019 66 219 6.0 11.0 0.00 0.05 0.01 64 1002.5
20260505093520 66 221 7.0 13.0 0.00 0.05 0.01 64 1002.5
20260505093017 66 225 7.0 13.0 0.00 0.05 0.01 64 1002.4
20260505092517 66 208 6.0 15.0 0.00 0.05 0.01 64 1002.5
20260505092017 66 229 6.0 12.0 0.00 0.05 0.01 63 1002.4
20260505091520 66 214 5.0 9.0 0.00 0.05 0.01 63 1002.3